Regional Weather Roundup
Issued by NWS

Home | Current Version | Previous Version | Graphics & Text | Print | Product List | Glossary On
Versions: 1 2 3 4 5 6 7 8 9 10 11 12 13 14 15 16 17 18 19 20 21 22 23 24 25 26 27 28 29 30 31 32 33 34 35 36 37 38 39 40 41 42 43 44 45 46 47 48 49 50
000
ASUS43 KFSD 221902
RWRSD

WEATHER ROUNDUP FOR SOUTH DAKOTA
NATIONAL WEATHER SERVICE SIOUX FALLS SD
200 PM CDT TUE APR 22 2014

NOTE: "FAIR" INDICATES FEW OR NO CLOUDS BELOW 12,000 FEET WITH NO
SIGNIFICANT WEATHER AND/OR OBSTRUCTIONS TO VISIBILITY.


SDZ001>005-009-010-012>017-222000-
NORTHWEST AND NORTH CENTRAL SOUTH DAKOTA

CITY           SKY/WX    TMP DP  RH WIND       PRES   REMARKS
FAITH            N/A     69  33  26 SE21G32   29.78F
MOBRIDGE       PTSUNNY   68  29  23 SE26      29.87F
$$

SDZ012>016-024>037-041>051-057-063-072>074-222000-
SOUTHWEST AND SOUTH CENTRAL SOUTH DAKOTA

CITY           SKY/WX    TMP DP  RH WIND       PRES   REMARKS
RAPID CTY ARPT MOSUNNY   69  40  34 S15       29.73F
PIERRE         SUNNY     71  33  24 SE28G36   29.84F
CUSTER         PTSUNNY   67  33  28 SW10G20   29.83F
ELLSWORTH AFB  PTSUNNY   69  41  35 S15       29.73F
PHILIP         MOSUNNY   78  41  26 S16G26    29.74F
PINE RIDGE     PTSUNNY   75  42  30 S24G31    29.77F
WINNER         FAIR      72  31  22 S24G35    29.89F
$$

SDZ004>011-016>023-039-040-222000-
NORTHEAST SOUTH DAKOTA

CITY           SKY/WX    TMP DP  RH WIND       PRES   REMARKS
ABERDEEN       MOSUNNY   66  30  26 S17G25    29.99F
WATERTOWN      SUNNY     62  31  31 SE8       30.04F
SISSETON         N/A     61  31  32 VRB7      30.03F
$$

SDZ017-020-022-023-036>040-048>070-222000-
SOUTHEAST SOUTH DAKOTA

CITY           SKY/WX    TMP DP  RH WIND       PRES   REMARKS
SIOUX FALLS    MOSUNNY   64  32  30 S12       30.06F
HURON          CLOUDY    65  29  25 MISG      29.99F
CHAMBERLAIN      N/A     69  31  24 S23G37    29.92F
MITCHELL       PTSUNNY   67  30  25 S21G28    30.01F
YANKTON        SUNNY     64  30  27 SE15G22   30.05F
$$

ABBREVIATIONS USED IN REMARKS
   TC - TEMPERATURE IN CELSIUS
  WCI - WIND CHILL INDEX
   HX - HEAT INDEX
  VSB - VISIBILITY




USA.gov is the U.S. government's official web portal to all federal, state and local government web resources and services.